{"data":{"norad_id":39157,"intl_designator":"2013-020A","name":"ZHONGXING-11","alt_names":[],"object_type":"PAYLOAD","status":"ACTIVE","operator":null,"country":"PRC","launch_date":"2013-05-01","launch_site_code":"XICLF","launch_vehicle":null,"mission":null,"orbit_class":"UNKNOWN","rcs_meters":25.1189,"size_class":null,"mass_kg":null,"dimensions":null,"purposes":["comms"],"wikipedia_slug":null,"has_3d_model":false,"image_url":null,"decayed_at":null,"tle_current":{"epoch":"2026-09-20T00:16:46.770816Z","epoch_age_seconds":64078,"freshness":"FRESH","line1":"1 39157U 13020A   26263.01165244 -.00000295  00000+0  00000+0 0  9998","line2":"2 39157   0.0354 308.0636 0001166 169.5947 343.3745  1.00270935 48851","mean_motion":1.00270935,"eccentricity":0.0001166,"inclination_deg":0.0354,"raan_deg":308.0636,"arg_perigee_deg":169.5947,"mean_anomaly_deg":343.3745,"bstar":0,"rev_number":4885,"period_min":1436.1090778699,"perigee_km":35781.916813199,"apogee_km":35791.749684261,"semimajor_km":42164.97024873,"source":"CELESTRAK","updated_at":"2026-09-20T09:00:35.203686Z"}}}